Time,TemperatureF,DewpointF,PressureIn,WindDirection,WindDirectionDegrees,WindSpeedMPH,WindSpeedGustMPH,Humidity,HourlyPrecipIn,Conditions,Clouds,dailyrainin,SoftwareType,DateUTC
2013-02-26 00:00:00,38.0,-99.9,-100.00,South,180,6.0,-999.0,-999,-99.99,,,-99.99,,2013-02-26 08:00:00,
2013-02-26 01:00:00,38.0,-99.9,-100.00,SSW,200,6.0,-999.0,-999,-99.99,,,-99.99,,2013-02-26 09:00:00,
2013-02-26 02:00:00,37.0,-99.9,-100.00,South,187,6.0,-999.0,-999,-99.99,,,-99.99,,2013-02-26 10:00:00,
2013-02-26 03:00:00,36.0,-99.9,-100.00,South,175,7.0,-999.0,-999,-99.99,,,-99.99,,2013-02-26 11:00:00,
2013-02-26 03:53:00,36.0,-99.9,-100.00,South,175,7.0,-999.0,-999,-99.99,,,-99.99,,2013-02-26 11:53:00,
2013-02-26 04:00:00,37.0,-99.9,-100.00,SSW,195,6.0,-999.0,-999,-99.99,,,-99.99,,2013-02-26 12:00:00,
2013-02-26 05:00:00,37.0,-99.9,-100.00,South,173,5.0,-999.0,-999,-99.99,,,-99.99,,2013-02-26 13:00:00,
2013-02-26 05:52:00,37.0,-99.9,-100.00,South,173,5.0,-999.0,-999,-99.99,,,-99.99,,2013-02-26 13:52:00,
2013-02-26 06:00:00,37.0,-99.9,-100.00,South,185,5.0,-999.0,-999,-99.99,,,-99.99,,2013-02-26 14:00:00,
2013-02-26 07:00:00,37.0,-99.9,-100.00,SW,226,2.0,-999.0,-999,-99.99,,,-99.99,,2013-02-26 15:00:00,
2013-02-26 08:00:00,35.0,-99.9,-100.00,ENE,64,2.0,-999.0,-999,-99.99,,,-99.99,,2013-02-26 16:00:00,
2013-02-26 09:00:00,38.0,-99.9,-100.00,SE,133,5.0,-999.0,-999,-99.99,,,-99.99,,2013-02-26 17:00:00,
2013-02-26 11:00:00,42.0,-99.9,-100.00,NW,304,3.0,-999.0,-999,-99.99,,,-99.99,,2013-02-26 19:00:00,
2013-02-26 13:00:00,43.0,-99.9,-100.00,WNW,296,5.0,-999.0,-999,-99.99,,,-99.99,,2013-02-26 21:00:00,
2013-02-26 14:00:00,45.0,-99.9,-100.00,NNE,22,3.0,-999.0,-999,-99.99,,,-99.99,,2013-02-26 22:00:00,
2013-02-26 16:00:00,47.0,-99.9,-100.00,NNE,23,3.0,-999.0,-999,-99.99,,,-99.99,,2013-02-27 00:00:00,
2013-02-26 17:00:00,47.0,-99.9,-100.00,NW,304,3.0,-999.0,-999,-99.99,,,-99.99,,2013-02-27 01:00:00,
2013-02-26 18:00:00,45.0,-99.9,-100.00,NW,326,2.0,-999.0,-999,-99.99,,,-99.99,,2013-02-27 02:00:00,
2013-02-26 19:00:00,44.0,-99.9,-100.00,ESE,112,5.0,-999.0,-999,-99.99,,,-99.99,,2013-02-27 03:00:00,
2013-02-26 20:00:00,44.0,-99.9,-100.00,SSE,152,6.0,-999.0,-999,-99.99,,,-99.99,,2013-02-27 04:00:00,
2013-02-26 22:00:00,43.0,-99.9,-100.00,South,172,5.0,-999.0,-999,-99.99,,,-99.99,,2013-02-27 06:00:00,
2013-02-26 23:00:00,44.0,-99.9,-100.00,SW,234,3.0,-999.0,-999,-99.99,,,-99.99,,2013-02-27 07:00:00,